Darstellungsparameter: Aktuell verwendete Einstellungen:
Skalierung der Graphiken ... ?
xyx+y,   Skalierungsfaktor:      Skalierung: Modus: x, Faktor: 1
Darstellungszeitraum ... ?
Vom - - bis: - -   Zeitraum: 13.05.2010 - 19.05.2010
Min/Max/Avg-Anzeige ... ?
Zeige MMA aktuell
Zeige MMA Monat
Zeige MMA alles
Zeige --A aktuell
Zeige --A Monat
Zeige --A alles
Keine MMA-Anzeige
MMA:
Average (ber die Originaldaten)
MMA-Basis: 13.05.2010 - 19.05.2010
Quicknavigation für Darstellung... ?
Tage:      1T, 2T, 3T, 5T -1T -2T -3T -5T +1T +2T +3T +5T
Wochen: 1W, 2W, 3W -1W -2W -3W +1W +2W +3W
Monate: 1M, 3M, 6M -1M -3M -6M +1M +3M +6M
Jahre:    1J, 3J, 5J, 10J -1J -3J -5J -10J +1J +3J +5J +10J
Nutze für die Darstellung ... ?
Originaldaten oder Mittelwerte auf ...
Stundenbasis Tagesbasis Wochenbasis
Monatsbasis Jahresbasis      Datenbasis: Original-Daten
Darstellen als:
Statistik (Auto) Statistik J:M      Darstellung:
Zur Graphik,    zurück zur Übersicht aller Sensoren.
 
Tabellarische Datenbersicht: ?
 
Sensor: Nr:Datum:Temp:Abs-Feuchte:Windchill:Wind:
Aussen-T/F 1 13-05-2010 00:05:04 7.7 C 6.57 g/m*3 7.7 C 0 km/h
2 13-05-2010 00:17:04 7.6 C 6.53 g/m*3 7.6 C 0 km/h
3 13-05-2010 00:29:04 7.5 C 6.4 g/m*3 7.5 C 0 km/h
4 13-05-2010 00:41:04 7.6 C 6.44 g/m*3 7.6 C 0 km/h
5 13-05-2010 00:53:04 7.5 C 6.4 g/m*3 7.5 C 0 km/h
6 13-05-2010 01:05:04 7.4 C 6.36 g/m*3 7.4 C 0 km/h
7 13-05-2010 01:17:04 7.3 C 6.48 g/m*3 7.3 C 0 km/h
8 13-05-2010 01:29:04 7.3 C 6.48 g/m*3 7.3 C 0 km/h
9 13-05-2010 01:41:04 7.3 C 6.56 g/m*3 7.3 C 0 km/h
10 13-05-2010 01:53:04 7.4 C 6.68 g/m*3 7.4 C 0 km/h
11 13-05-2010 02:05:04 7.5 C 6.72 g/m*3 7.5 C 0 km/h
12 13-05-2010 02:17:04 7.4 C 6.6 g/m*3 7.4 C 0 km/h
13 13-05-2010 02:29:04 7.4 C 6.52 g/m*3 7.4 C 0 km/h
14 13-05-2010 02:41:04 7.4 C 6.52 g/m*3 7.4 C 0 km/h
15 13-05-2010 02:53:04 7.4 C 6.52 g/m*3 7.4 C 0 km/h
16 13-05-2010 03:05:04 7.4 C 6.52 g/m*3 7.4 C 0 km/h
17 13-05-2010 03:17:04 7.4 C 6.52 g/m*3 7.4 C 0 km/h
18 13-05-2010 03:29:04 7.3 C 6.48 g/m*3 7.3 C 0 km/h
19 13-05-2010 03:41:05 7.3 C 6.56 g/m*3 7.3 C 0 km/h
20 13-05-2010 03:53:05 7.1 C 6.47 g/m*3 7.1 C 0 km/h
21 13-05-2010 04:05:05 6.9 C 6.54 g/m*3 6.9 C 0 km/h
22 13-05-2010 04:17:05 7 C 6.51 g/m*3 7 C 0 km/h
23 13-05-2010 04:29:05 7.1 C 6.63 g/m*3 7.1 C 0 km/h
24 13-05-2010 04:41:05 7.1 C 6.63 g/m*3 7.1 C 0 km/h
25 13-05-2010 04:53:05 6.9 C 6.62 g/m*3 6.9 C 0 km/h
Sensor: Nr:Datum:Temp:Abs-Feuchte:Windchill:Wind:
Aussen-T/F 26 13-05-2010 05:05:05 6.9 C 6.7 g/m*3 6.9 C 0 km/h
27 13-05-2010 05:17:05 6.8 C 6.65 g/m*3 6.8 C 0 km/h
28 13-05-2010 05:29:05 6.8 C 6.65 g/m*3 6.8 C 0 km/h
29 13-05-2010 05:41:05 6.7 C 6.61 g/m*3 6.7 C 0 km/h
30 13-05-2010 05:53:05 6.6 C 6.64 g/m*3 6.6 C 0 km/h
31 13-05-2010 06:05:05 6.6 C 6.64 g/m*3 6.6 C 0 km/h
32 13-05-2010 06:17:05 6.7 C 6.69 g/m*3 6.7 C 0 km/h
33 13-05-2010 06:29:05 6.7 C 6.69 g/m*3 6.7 C 0 km/h
34 13-05-2010 06:41:05 6.6 C 6.64 g/m*3 6.6 C 0 km/h
35 13-05-2010 06:53:05 6.6 C 6.64 g/m*3 6.6 C 0 km/h
36 13-05-2010 07:05:05 6.7 C 6.76 g/m*3 6.7 C 0 km/h
37 13-05-2010 07:17:05 6.7 C 6.76 g/m*3 6.7 C 0 km/h
38 13-05-2010 07:29:05 6.9 C 6.77 g/m*3 6.9 C 0 km/h
39 13-05-2010 07:41:05 6.9 C 6.7 g/m*3 6.9 C 0 km/h
40 13-05-2010 07:53:01 6.8 C 6.5 g/m*3 6.8 C 0 km/h
41 13-05-2010 08:05:01 6.8 C 6.42 g/m*3 6.8 C 0 km/h
42 13-05-2010 08:17:02 6.8 C 6.35 g/m*3 6.8 C 0 km/h
43 13-05-2010 08:29:02 6.9 C 6.31 g/m*3 6.9 C 0 km/h
44 13-05-2010 08:41:01 7 C 6.12 g/m*3 7 C 0 km/h
45 13-05-2010 08:53:02 7.2 C 6.12 g/m*3 7.2 C 0 km/h
46 13-05-2010 09:05:01 7.5 C 6.24 g/m*3 7.5 C 0 km/h
47 13-05-2010 09:17:01 7.8 C 6.2 g/m*3 7.8 C 0 km/h
48 13-05-2010 09:29:01 7.9 C 6 g/m*3 7.9 C 0 km/h
49 13-05-2010 09:41:01 8.2 C 5.86 g/m*3 8.2 C 0 km/h
50 13-05-2010 09:53:02 8.3 C 5.65 g/m*3 8.3 C 0 km/h
Sensor: Nr:Datum:Temp:Abs-Feuchte:Windchill:Wind:
Aussen-T/F 51 13-05-2010 10:05:01 8.9 C 5.69 g/m*3 8.9 C 0 km/h
52 13-05-2010 10:17:02 9.1 C 5.41 g/m*3 9.1 C 0 km/h
53 13-05-2010 10:29:02 9.7 C 5.62 g/m*3 9.7 C 0 km/h
54 13-05-2010 10:41:02 9.7 C 5.16 g/m*3 9.7 C 0 km/h
55 13-05-2010 10:53:01 9.9 C 5.23 g/m*3 9.9 C 0 km/h
56 13-05-2010 11:05:02 10.2 C 5.23 g/m*3 10.2 C 0 km/h
57 13-05-2010 11:17:01 10 C 4.98 g/m*3 10 C 0 km/h
58 13-05-2010 11:29:01 10.1 C 4.92 g/m*3 10.1 C 0 km/h
59 13-05-2010 11:41:02 9.5 C 5.01 g/m*3 9.5 C 0 km/h
60 13-05-2010 11:53:02 9.7 C 5.16 g/m*3 9.7 C 0 km/h
61 13-05-2010 12:05:02 9.7 C 4.89 g/m*3 9.7 C 0 km/h
62 13-05-2010 12:17:01 9.5 C 4.92 g/m*3 9.5 C 0 km/h
63 13-05-2010 12:29:01 10.2 C 4.95 g/m*3 10.2 C 0 km/h
64 13-05-2010 12:41:02 10.1 C 4.63 g/m*3 10.1 C 0 km/h
65 13-05-2010 12:53:02 10.8 C 4.84 g/m*3 10.8 C 0 km/h
66 13-05-2010 13:05:02 11 C 4.8 g/m*3 11 C 0 km/h
67 13-05-2010 13:17:01 10.1 C 4.92 g/m*3 10.1 C 0 km/h
68 13-05-2010 13:29:01 9.3 C 4.94 g/m*3 9.3 C 0 km/h
69 13-05-2010 13:41:02 8.9 C 5.08 g/m*3 8.9 C 0 km/h
70 13-05-2010 13:53:02 9.4 C 5.16 g/m*3 9.4 C 0 km/h
71 13-05-2010 14:05:02 10 C 5.17 g/m*3 10 C 0 km/h
72 13-05-2010 14:17:02 10.5 C 5.14 g/m*3 10.5 C 0 km/h
73 13-05-2010 14:29:02 10.9 C 5.07 g/m*3 10.9 C 0 km/h
74 13-05-2010 14:41:02 10.6 C 4.78 g/m*3 10.6 C 0 km/h
75 13-05-2010 14:53:01 11 C 4.9 g/m*3 11 C 0 km/h
Sensor: Nr:Datum:Temp:Abs-Feuchte:Windchill:Wind:
Aussen-T/F 76 13-05-2010 15:05:02 11 C 4.8 g/m*3 11 C 0 km/h
77 13-05-2010 15:17:02 10.5 C 4.85 g/m*3 10.5 C 0 km/h
78 13-05-2010 15:29:02 10 C 4.79 g/m*3 10 C 0 km/h
79 13-05-2010 15:41:02 9.8 C 5.1 g/m*3 9.8 C 0 km/h
80 13-05-2010 15:53:02 9.2 C 5.36 g/m*3 9.2 C 0 km/h
81 13-05-2010 16:05:01 8.7 C 5.53 g/m*3 8.7 C 0 km/h
82 13-05-2010 16:17:02 8.5 C 5.81 g/m*3 8.5 C 0 km/h
83 13-05-2010 16:29:02 8.6 C 6.02 g/m*3 8.6 C 0 km/h
84 13-05-2010 16:41:01 8.6 C 6.19 g/m*3 8.6 C 0 km/h
85 13-05-2010 16:53:02 8.9 C 6.57 g/m*3 8.9 C 0 km/h
86 13-05-2010 17:05:01 8.4 C 6.19 g/m*3 8.4 C 0 km/h
87 13-05-2010 17:17:02 8.2 C 6.28 g/m*3 8.2 C 0 km/h
88 13-05-2010 17:29:03 8.2 C 6.36 g/m*3 8.2 C 0 km/h
89 13-05-2010 17:41:01 8.2 C 6.53 g/m*3 8.2 C 0 km/h
90 13-05-2010 17:53:02 8.1 C 6.49 g/m*3 8.1 C 0 km/h
91 13-05-2010 18:05:02 8.3 C 6.66 g/m*3 8.3 C 0 km/h
92 13-05-2010 18:17:02 9 C 7.05 g/m*3 9 C 0 km/h
93 13-05-2010 18:29:02 8.9 C 7.1 g/m*3 8.9 C 0 km/h
94 13-05-2010 18:41:02 8.7 C 7.01 g/m*3 8.7 C 0 km/h
95 13-05-2010 18:53:02 7.9 C 6.74 g/m*3 7.9 C 0 km/h
96 13-05-2010 19:05:02 7.7 C 6.81 g/m*3 7.7 C 0 km/h
97 13-05-2010 19:17:01 7.5 C 6.8 g/m*3 7.5 C 0 km/h
98 13-05-2010 19:29:01 7.3 C 6.72 g/m*3 7.3 C 0 km/h
99 13-05-2010 19:41:02 7.3 C 6.79 g/m*3 7.3 C 0 km/h
100 13-05-2010 19:53:02 7.2 C 6.75 g/m*3 7.2 C 0 km/h
Sensor: Nr:Datum:Temp:Abs-Feuchte:Windchill:Wind:
Aussen-T/F 101 13-05-2010 20:05:02 7.3 C 6.87 g/m*3 7.3 C 0 km/h
102 13-05-2010 20:17:02 7.4 C 6.92 g/m*3 7.4 C 0 km/h
103 13-05-2010 20:29:02 7.4 C 7 g/m*3 7.4 C 0 km/h
104 13-05-2010 20:41:02 7.5 C 7.04 g/m*3 7.5 C 0 km/h
105 13-05-2010 20:53:01 7.6 C 7.09 g/m*3 7.6 C 0 km/h
106 13-05-2010 21:05:02 7.5 C 7.12 g/m*3 7.5 C 0 km/h
107 13-05-2010 21:17:01 7.5 C 7.12 g/m*3 7.5 C 0 km/h
108 13-05-2010 21:29:01 7.4 C 7.08 g/m*3 7.4 C 0 km/h
109 13-05-2010 21:41:01 7.4 C 7.08 g/m*3 7.4 C 0 km/h
110 13-05-2010 21:53:01 7.4 C 7.16 g/m*3 7.4 C 0 km/h
111 13-05-2010 22:05:02 7.4 C 7.16 g/m*3 7.4 C 0 km/h
112 13-05-2010 22:17:01 7.4 C 7.16 g/m*3 7.4 C 0 km/h
113 13-05-2010 22:29:01 7.3 C 7.11 g/m*3 7.3 C 0 km/h
114 13-05-2010 22:41:02 7.2 C 7.06 g/m*3 7.2 C 0 km/h
115 13-05-2010 22:54:02 7.2 C 7.06 g/m*3 7.2 C 0 km/h
116 13-05-2010 23:06:02 7.2 C 7.06 g/m*3 7.2 C 0 km/h
117 13-05-2010 23:18:03 7.3 C 7.11 g/m*3 7.3 C 0 km/h
118 13-05-2010 23:30:03 7.3 C 7.19 g/m*3 7.3 C 0 km/h
119 13-05-2010 23:42:03 7.2 C 7.14 g/m*3 7.2 C 0 km/h
120 13-05-2010 23:54:03 7.2 C 7.14 g/m*3 7.2 C 0 km/h
121 14-05-2010 00:06:03 7 C 7.05 g/m*3 7 C 0 km/h
122 14-05-2010 00:18:03 6.9 C 7.16 g/m*3 6.9 C 0 km/h
123 14-05-2010 00:30:03 6.9 C 7.16 g/m*3 6.9 C 0 km/h
124 14-05-2010 00:42:03 7 C 7.21 g/m*3 7 C 0 km/h
125 14-05-2010 00:54:03 7 C 7.21 g/m*3 7 C 0 km/h
Sensor: Nr:Datum:Temp:Abs-Feuchte:Windchill:Wind:
Aussen-T/F 126 14-05-2010 01:06:03 6.9 C 7.24 g/m*3 6.9 C 0 km/h
127 14-05-2010 01:18:03 7 C 7.21 g/m*3 7 C 0 km/h
128 14-05-2010 01:30:03 7.1 C 7.25 g/m*3 7.1 C 0 km/h
129 14-05-2010 01:42:03 7.1 C 7.25 g/m*3 7.1 C 0 km/h
130 14-05-2010 01:54:03 7.1 C 7.25 g/m*3 7.1 C 0 km/h
131 14-05-2010 02:06:03 7.1 C 7.25 g/m*3 7.1 C 0 km/h
132 14-05-2010 02:18:03 7 C 7.21 g/m*3 7 C 0 km/h
133 14-05-2010 02:30:03 6.9 C 7.24 g/m*3 6.9 C 0 km/h
134 14-05-2010 02:42:03 7 C 7.21 g/m*3 7 C 0 km/h
135 14-05-2010 02:54:03 7 C 7.28 g/m*3 7 C 0 km/h
136 14-05-2010 03:06:03 7 C 7.28 g/m*3 7 C 0 km/h
137 14-05-2010 03:18:03 6.9 C 7.24 g/m*3 6.9 C 0 km/h
138 14-05-2010 03:30:04 7 C 7.28 g/m*3 7 C 0 km/h
139 14-05-2010 03:42:04 7 C 7.28 g/m*3 7 C 0 km/h
140 14-05-2010 03:54:04 7 C 7.28 g/m*3 7 C 0 km/h
141 14-05-2010 04:06:04 7 C 7.28 g/m*3 7 C 0 km/h
142 14-05-2010 04:18:04 7 C 7.28 g/m*3 7 C 0 km/h
143 14-05-2010 04:30:04 6.9 C 7.24 g/m*3 6.9 C 0 km/h
144 14-05-2010 04:42:04 6.9 C 7.24 g/m*3 6.9 C 0 km/h
145 14-05-2010 04:54:04 6.9 C 7.24 g/m*3 6.9 C 0 km/h
146 14-05-2010 05:06:04 6.8 C 7.19 g/m*3 6.8 C 0 km/h
147 14-05-2010 05:18:04 6.9 C 7.24 g/m*3 6.9 C 0 km/h
148 14-05-2010 05:30:04 6.8 C 7.27 g/m*3 6.8 C 0 km/h
149 14-05-2010 05:42:04 6.9 C 7.31 g/m*3 6.9 C 0 km/h
150 14-05-2010 05:54:04 7 C 7.28 g/m*3 7 C 0 km/h
Sensor: Nr:Datum:Temp:Abs-Feuchte:Windchill:Wind:
Aussen-T/F 151 14-05-2010 06:06:04 7.1 C 7.33 g/m*3 7.1 C 0 km/h
152 14-05-2010 06:18:04 7.1 C 7.33 g/m*3 7.1 C 0 km/h
153 14-05-2010 06:30:04 7 C 7.28 g/m*3 7 C 0 km/h
154 14-05-2010 06:42:04 7.1 C 7.33 g/m*3 7.1 C 0 km/h
155 14-05-2010 06:54:04 7.2 C 7.38 g/m*3 7.2 C 0 km/h
156 14-05-2010 07:06:02 7.2 C 7.3 g/m*3 7.2 C 0 km/h
157 14-05-2010 07:18:02 7.3 C 7.35 g/m*3 7.3 C 0 km/h
158 14-05-2010 07:30:02 7.5 C 7.44 g/m*3 7.5 C 0 km/h
159 14-05-2010 07:42:02 7.5 C 7.44 g/m*3 7.5 C 0 km/h
160 14-05-2010 07:54:01 7.5 C 7.36 g/m*3 7.5 C 0 km/h
161 14-05-2010 08:06:02 7.7 C 7.38 g/m*3 7.7 C 0 km/h
162 14-05-2010 08:18:01 7.9 C 7.47 g/m*3 7.9 C 0 km/h
163 14-05-2010 08:30:01 8.1 C 7.41 g/m*3 8.1 C 0 km/h
164 14-05-2010 08:42:02 7.9 C 7.31 g/m*3 7.9 C 0 km/h
165 14-05-2010 08:54:02 8 C 7.19 g/m*3 8 C 0 km/h
166 14-05-2010 09:06:02 8 C 7.19 g/m*3 8 C 0 km/h
167 14-05-2010 09:18:01 7.9 C 7.15 g/m*3 7.9 C 0 km/h
168 14-05-2010 09:30:01 8 C 7.03 g/m*3 8 C 0 km/h
169 14-05-2010 09:42:02 8.6 C 7.39 g/m*3 8.6 C 0 km/h
170 14-05-2010 09:54:02 8.4 C 7.13 g/m*3 8.4 C 0 km/h
171 14-05-2010 10:06:02 8.7 C 7.18 g/m*3 8.7 C 0 km/h
172 14-05-2010 10:18:02 9.4 C 7.33 g/m*3 9.4 C 0 km/h
173 14-05-2010 10:30:02 9.5 C 7.01 g/m*3 9.5 C 0 km/h
174 14-05-2010 10:42:02 10 C 7.24 g/m*3 10 C 0 km/h
175 14-05-2010 10:54:01 10.3 C 7.18 g/m*3 10.3 C 0 km/h
Sensor: Nr:Datum:Temp:Abs-Feuchte:Windchill:Wind:
Aussen-T/F 176 14-05-2010 11:06:02 11 C 7.31 g/m*3 11 C 0 km/h
177 14-05-2010 11:18:02 10.5 C 6.6 g/m*3 10.5 C 0 km/h
178 14-05-2010 11:30:02 10.1 C 6.34 g/m*3 10.1 C 0 km/h
179 14-05-2010 11:42:02 10.4 C 6.75 g/m*3 10.4 C 0 km/h
180 14-05-2010 11:54:02 9.9 C 6.82 g/m*3 9.9 C 0 km/h
181 14-05-2010 12:06:01 9.1 C 6.39 g/m*3 9.1 C 0 km/h
182 14-05-2010 12:18:02 9 C 6.44 g/m*3 9 C 0 km/h
183 14-05-2010 12:30:02 9.3 C 7.1 g/m*3 9.3 C 0 km/h
184 14-05-2010 12:42:01 9.3 C 7.28 g/m*3 9.3 C 0 km/h
185 14-05-2010 12:54:02 9.1 C 7.28 g/m*3 9.1 C 0 km/h
186 14-05-2010 13:06:01 9.3 C 7.46 g/m*3 9.3 C 0 km/h
187 14-05-2010 13:18:01 9.5 C 7.65 g/m*3 9.5 C 0 km/h
188 14-05-2010 13:30:01 9.6 C 7.69 g/m*3 9.6 C 0 km/h
189 14-05-2010 13:42:02 9.7 C 7.74 g/m*3 9.7 C 0 km/h
190 14-05-2010 13:54:02 9.2 C 7.41 g/m*3 9.2 C 0 km/h
191 14-05-2010 14:06:01 9 C 7.41 g/m*3 9 C 0 km/h
192 14-05-2010 14:18:02 9.2 C 7.59 g/m*3 9.2 C 0 km/h
193 14-05-2010 14:30:02 9.5 C 7.74 g/m*3 9.5 C 0 km/h
194 14-05-2010 14:42:02 9.7 C 7.84 g/m*3 9.7 C 0 km/h
195 14-05-2010 14:54:02 10.5 C 8.15 g/m*3 10.5 C 0 km/h
196 14-05-2010 15:06:02 11.2 C 8.21 g/m*3 11.2 C 0 km/h
197 14-05-2010 15:18:01 11.7 C 7.95 g/m*3 11.7 C 0 km/h
198 14-05-2010 15:30:01 12 C 7.67 g/m*3 12 C 0 km/h
199 14-05-2010 15:42:02 12.2 C 7.23 g/m*3 12.2 C 0 km/h
200 14-05-2010 15:54:02 12.2 C 6.91 g/m*3 12.2 C 0 km/h
Sensor: Nr:Datum:Temp:Abs-Feuchte:Windchill:Wind:
Aussen-T/F 201 14-05-2010 16:06:02 12.6 C 6.97 g/m*3 12.6 C 0 km/h
202 14-05-2010 16:18:01 12.8 C 7.06 g/m*3 12.8 C 0 km/h
203 14-05-2010 16:30:01 13.3 C 6.93 g/m*3 13.3 C 0 km/h
204 14-05-2010 16:42:02 13.4 C 6.63 g/m*3 13.4 C 0 km/h
205 14-05-2010 16:54:02 12.8 C 6.27 g/m*3 12.8 C 0 km/h
206 14-05-2010 17:06:02 12.2 C 6.37 g/m*3 12.2 C 0 km/h
207 14-05-2010 17:18:02 11.9 C 6.25 g/m*3 11.9 C 0 km/h
208 14-05-2010 17:30:02 11.4 C 6.77 g/m*3 11.4 C 0 km/h
209 14-05-2010 17:42:02 11 C 6.81 g/m*3 11 C 0 km/h
210 14-05-2010 17:54:02 11.2 C 6.79 g/m*3 11.2 C 0 km/h
211 14-05-2010 18:06:02 11.5 C 6.71 g/m*3 11.5 C 0 km/h
212 14-05-2010 18:18:03 11.8 C 6.74 g/m*3 11.8 C 0 km/h
213 14-05-2010 18:30:03 12 C 6.82 g/m*3 12 C 0 km/h
214 14-05-2010 18:42:02 11.5 C 6.71 g/m*3 11.5 C 0 km/h
215 14-05-2010 18:54:02 11 C 6.81 g/m*3 11 C 0 km/h
216 14-05-2010 19:06:02 10.5 C 6.89 g/m*3 10.5 C 0 km/h
217 14-05-2010 19:18:03 10.3 C 6.99 g/m*3 10.3 C 0 km/h
218 14-05-2010 19:30:03 10.4 C 7.13 g/m*3 10.4 C 0 km/h
219 14-05-2010 19:42:02 10.5 C 6.98 g/m*3 10.5 C 0 km/h
220 14-05-2010 19:54:02 10.6 C 7.03 g/m*3 10.6 C 0 km/h
221 14-05-2010 20:06:02 10.5 C 7.08 g/m*3 10.5 C 0 km/h
222 14-05-2010 20:18:02 10.2 C 6.95 g/m*3 10.2 C 0 km/h
223 14-05-2010 20:30:02 9.9 C 6.91 g/m*3 9.9 C 0 km/h
224 14-05-2010 20:42:02 9.6 C 6.78 g/m*3 9.6 C 0 km/h
225 14-05-2010 20:54:02 9.5 C 6.92 g/m*3 9.5 C 0 km/h
Sensor: Nr:Datum:Temp:Abs-Feuchte:Windchill:Wind:
Aussen-T/F 226 14-05-2010 21:06:02 9.3 C 6.83 g/m*3 9.3 C 0 km/h
227 14-05-2010 21:18:02 9.2 C 6.88 g/m*3 9.2 C 0 km/h
228 14-05-2010 21:30:02 9.1 C 6.83 g/m*3 9.1 C 0 km/h
229 14-05-2010 21:42:02 9.1 C 6.92 g/m*3 9.1 C 0 km/h
230 14-05-2010 21:54:02 9 C 6.88 g/m*3 9 C 0 km/h
231 14-05-2010 22:06:02 9.1 C 7.01 g/m*3 9.1 C 0 km/h
232 14-05-2010 22:18:02 9.1 C 7.01 g/m*3 9.1 C 0 km/h
233 14-05-2010 22:30:02 9.1 C 7.1 g/m*3 9.1 C 0 km/h
234 14-05-2010 22:42:02 9.1 C 7.1 g/m*3 9.1 C 0 km/h
235 14-05-2010 22:55:03 9 C 7.14 g/m*3 9 C 0 km/h
236 14-05-2010 23:07:03 8.6 C 7.13 g/m*3 8.6 C 0 km/h
237 14-05-2010 23:19:03 8.2 C 7.12 g/m*3 8.2 C 0 km/h
238 14-05-2010 23:31:03 8.2 C 7.2 g/m*3 8.2 C 0 km/h
239 14-05-2010 23:43:03 8.1 C 7.16 g/m*3 8.1 C 0 km/h
240 14-05-2010 23:55:03 8.1 C 7.24 g/m*3 8.1 C 0 km/h
241 15-05-2010 00:07:03 8 C 7.19 g/m*3 8 C 0 km/h
242 15-05-2010 00:19:03 8 C 7.19 g/m*3 8 C 0 km/h
243 15-05-2010 00:31:04 7.9 C 7.23 g/m*3 7.9 C 0 km/h
244 15-05-2010 00:43:04 7.8 C 7.18 g/m*3 7.8 C 0 km/h
245 15-05-2010 00:55:04 7.8 C 7.18 g/m*3 7.8 C 0 km/h
246 15-05-2010 01:07:04 7.9 C 7.23 g/m*3 7.9 C 0 km/h
247 15-05-2010 01:19:04 7.8 C 7.18 g/m*3 7.8 C 0 km/h
248 15-05-2010 01:31:04 7.6 C 7.09 g/m*3 7.6 C 0 km/h
249 15-05-2010 01:43:04 7.6 C 7.09 g/m*3 7.6 C 0 km/h
250 15-05-2010 01:55:04 7.6 C 7.09 g/m*3 7.6 C 0 km/h
Sensor: Nr:Datum:Temp:Abs-Feuchte:Windchill:Wind:
Aussen-T/F 251 15-05-2010 02:07:04 7.5 C 7.04 g/m*3 7.5 C 0 km/h
252 15-05-2010 02:19:04 7.5 C 7.12 g/m*3 7.5 C 0 km/h
253 15-05-2010 02:31:04 7.6 C 7.17 g/m*3 7.6 C 0 km/h
254 15-05-2010 02:43:04 7.8 C 7.26 g/m*3 7.8 C 0 km/h
255 15-05-2010 02:55:04 7.8 C 7.26 g/m*3 7.8 C 0 km/h
256 15-05-2010 03:07:04 7.6 C 7.17 g/m*3 7.6 C 0 km/h
257 15-05-2010 03:19:04 7.6 C 7.17 g/m*3 7.6 C 0 km/h
258 15-05-2010 03:31:04 7.6 C 7.25 g/m*3 7.6 C 0 km/h
259 15-05-2010 03:43:04 7.6 C 7.25 g/m*3 7.6 C 0 km/h
260 15-05-2010 03:55:04 7.6 C 7.25 g/m*3 7.6 C 0 km/h
261 15-05-2010 04:07:04 7.6 C 7.25 g/m*3 7.6 C 0 km/h
262 15-05-2010 04:19:04 7.7 C 7.3 g/m*3 7.7 C 0 km/h
263 15-05-2010 04:31:04 7.6 C 7.25 g/m*3 7.6 C 0 km/h
264 15-05-2010 04:43:05 7.6 C 7.25 g/m*3 7.6 C 0 km/h
265 15-05-2010 04:55:05 7.5 C 7.2 g/m*3 7.5 C 0 km/h
266 15-05-2010 05:07:05 7.4 C 7.24 g/m*3 7.4 C 0 km/h
267 15-05-2010 05:19:05 7.3 C 7.19 g/m*3 7.3 C 0 km/h
268 15-05-2010 05:31:05 7.3 C 7.19 g/m*3 7.3 C 0 km/h
269 15-05-2010 05:43:05 7.2 C 7.14 g/m*3 7.2 C 0 km/h
270 15-05-2010 05:55:05 7.1 C 7.1 g/m*3 7.1 C 0 km/h
271 15-05-2010 06:07:05 7.1 C 7.1 g/m*3 7.1 C 0 km/h
272 15-05-2010 06:19:05 7.1 C 7.1 g/m*3 7.1 C 0 km/h
273 15-05-2010 06:31:05 7.1 C 7.18 g/m*3 7.1 C 0 km/h
274 15-05-2010 06:43:05 7.1 C 7.18 g/m*3 7.1 C 0 km/h
275 15-05-2010 06:55:05 7.1 C 7.18 g/m*3 7.1 C 0 km/h
Sensor: Nr:Datum:Temp:Abs-Feuchte:Windchill:Wind:
Aussen-T/F 276 15-05-2010 07:07:05 7.1 C 7.18 g/m*3 7.1 C 0 km/h
277 15-05-2010 07:19:05 7.4 C 7.32 g/m*3 7.4 C 0 km/h
278 15-05-2010 07:31:05 7.5 C 7.36 g/m*3 7.5 C 0 km/h
279 15-05-2010 07:43:05 7.8 C 7.51 g/m*3 7.8 C 0 km/h
280 15-05-2010 07:55:02 8.2 C 7.62 g/m*3 8.2 C 0 km/h
281 15-05-2010 08:07:02 8.3 C 7.59 g/m*3 8.3 C 0 km/h
282 15-05-2010 08:19:02 8.2 C 7.29 g/m*3 8.2 C 0 km/h
283 15-05-2010 08:31:03 8.6 C 7.39 g/m*3 8.6 C 0 km/h
284 15-05-2010 08:43:03 8.5 C 7 g/m*3 8.5 C 0 km/h
285 15-05-2010 08:55:02 8.8 C 7.05 g/m*3 8.8 C 0 km/h
286 15-05-2010 09:07:02 9 C 6.88 g/m*3 9 C 0 km/h
287 15-05-2010 09:19:02 9.3 C 6.92 g/m*3 9.3 C 0 km/h
288 15-05-2010 09:31:02 9.5 C 6.83 g/m*3 9.5 C 0 km/h
289 15-05-2010 09:43:02 9.6 C 6.78 g/m*3 9.6 C 0 km/h
290 15-05-2010 09:55:01 10 C 6.67 g/m*3 10 C 0 km/h
291 15-05-2010 10:07:02 10.5 C 6.6 g/m*3 10.5 C 0 km/h
292 15-05-2010 10:19:01 10.7 C 6.48 g/m*3 10.7 C 0 km/h
293 15-05-2010 10:31:02 10.6 C 6.34 g/m*3 10.6 C 0 km/h
294 15-05-2010 10:43:02 11.1 C 6.35 g/m*3 11.1 C 0 km/h
295 15-05-2010 10:55:02 11.1 C 6.35 g/m*3 11.1 C 0 km/h
296 15-05-2010 11:07:02 10.9 C 6.27 g/m*3 10.9 C 0 km/h
297 15-05-2010 11:19:01 10.8 C 6.23 g/m*3 10.8 C 0 km/h
298 15-05-2010 11:31:02 10.9 C 6.17 g/m*3 10.9 C 0 km/h
299 15-05-2010 11:43:02 11.5 C 5.89 g/m*3 11.5 C 0 km/h
300 15-05-2010 11:55:02 11.9 C 6.04 g/m*3 11.9 C 0 km/h
Sensor: Nr:Datum:Temp:Abs-Feuchte:Windchill:Wind:
Aussen-T/F 301 15-05-2010 12:07:02 11.2 C 5.68 g/m*3 11.2 C 0 km/h
302 15-05-2010 12:19:02 11.1 C 5.64 g/m*3 11.1 C 0 km/h
303 15-05-2010 12:31:02 11.2 C 5.57 g/m*3 11.2 C 0 km/h
304 15-05-2010 12:43:02 12.4 C 5.46 g/m*3 12.4 C 0 km/h
305 15-05-2010 12:55:02 12.3 C 4.78 g/m*3 12.3 C 0 km/h
306 15-05-2010 13:07:02 13.9 C 5.04 g/m*3 13.9 C 0 km/h
307 15-05-2010 13:19:03 12 C 4.58 g/m*3 12 C 0 km/h
308 15-05-2010 13:31:02 11.1 C 5.14 g/m*3 11.1 C 0 km/h
309 15-05-2010 13:43:02 11.2 C 4.87 g/m*3 11.2 C 0 km/h
310 15-05-2010 13:55:02 12.1 C 4.5 g/m*3 12.1 C 0 km/h
311 15-05-2010 14:07:02 13.7 C 4.5 g/m*3 13.7 C 0 km/h
312 15-05-2010 14:19:02 15 C 4.62 g/m*3 15 C 0 km/h
313 15-05-2010 14:31:02 14.7 C 4.15 g/m*3 14.7 C 0 km/h
314 15-05-2010 14:43:02 14 C 3.98 g/m*3 14 C 0 km/h
315 15-05-2010 14:55:01 13.9 C 3.72 g/m*3 13.9 C 0 km/h
316 15-05-2010 15:07:01 14.3 C 3.56 g/m*3 14.3 C 0 km/h
317 15-05-2010 15:19:01 15.2 C 3.24 g/m*3 15.2 C 0 km/h
318 15-05-2010 15:31:01 15.8 C 2.69 g/m*3 15.8 C 0 km/h
319 15-05-2010 15:43:01 16 C 2.72 g/m*3 16 C 0 km/h
320 15-05-2010 15:55:01 16.2 C 2.76 g/m*3 16.2 C 0 km/h
321 15-05-2010 16:07:02 16.2 C 2.76 g/m*3 16.2 C 0 km/h
322 15-05-2010 16:19:01 15.1 C 2.58 g/m*3 15.1 C 0 km/h
323 15-05-2010 16:31:01 14.4 C 2.47 g/m*3 14.4 C 0 km/h
324 15-05-2010 16:43:01 14.4 C 2.97 g/m*3 14.4 C 0 km/h
325 15-05-2010 16:55:01 13.8 C 2.98 g/m*3 13.8 C 0 km/h
Sensor: Nr:Datum:Temp:Abs-Feuchte:Windchill:Wind:
Aussen-T/F 326 15-05-2010 17:07:02 13.9 C 3.12 g/m*3 13.9 C 0 km/h
327 15-05-2010 17:19:01 14 C 3.02 g/m*3 14 C 0 km/h
328 15-05-2010 17:31:02 14.1 C 3.16 g/m*3 14.1 C 0 km/h
329 15-05-2010 17:43:02 14 C 3.26 g/m*3 14 C 0 km/h
330 15-05-2010 17:55:02 14 C 3.26 g/m*3 14 C 0 km/h
331 15-05-2010 18:07:02 13.7 C 3.43 g/m*3 13.7 C 0 km/h
332 15-05-2010 18:19:01 14 C 3.62 g/m*3 14 C 0 km/h
333 15-05-2010 18:31:02 13.8 C 3.46 g/m*3 13.8 C 0 km/h
334 15-05-2010 18:43:02 13.7 C 3.43 g/m*3 13.7 C 0 km/h
335 15-05-2010 18:55:02 13.9 C 3.36 g/m*3 13.9 C 0 km/h
336 15-05-2010 19:07:02 13.9 C 3.24 g/m*3 13.9 C 0 km/h
337 15-05-2010 19:19:02 14.6 C 3.5 g/m*3 14.6 C 0 km/h
338 15-05-2010 19:31:02 15.1 C 3.23 g/m*3 15.1 C 0 km/h
339 15-05-2010 19:43:02 14.9 C 3.44 g/m*3 14.9 C 0 km/h
340 15-05-2010 19:55:02 14.4 C 3.58 g/m*3 14.4 C 0 km/h
341 15-05-2010 20:07:02 13.9 C 4.2 g/m*3 13.9 C 0 km/h
342 15-05-2010 20:19:02 13.3 C 4.62 g/m*3 13.3 C 0 km/h
343 15-05-2010 20:31:02 12.4 C 4.48 g/m*3 12.4 C 0 km/h
344 15-05-2010 20:43:02 11.6 C 4.47 g/m*3 11.6 C 0 km/h
345 15-05-2010 20:55:02 11.3 C 4.59 g/m*3 11.3 C 0 km/h
346 15-05-2010 21:07:02 11.4 C 4.62 g/m*3 11.4 C 0 km/h
347 15-05-2010 21:19:02 11.1 C 4.53 g/m*3 11.1 C 0 km/h
348 15-05-2010 21:31:02 10.8 C 4.55 g/m*3 10.8 C 0 km/h
349 15-05-2010 21:43:02 10.8 C 4.84 g/m*3 10.8 C 0 km/h
350 15-05-2010 21:55:01 10.8 C 4.84 g/m*3 10.8 C 0 km/h
Sensor: Nr:Datum:Temp:Abs-Feuchte:Windchill:Wind:
Aussen-T/F 351 15-05-2010 22:07:02 10.8 C 4.94 g/m*3 10.8 C 0 km/h
352 15-05-2010 22:19:02 11 C 5 g/m*3 11 C 0 km/h
353 15-05-2010 22:32:02 11.1 C 4.83 g/m*3 11.1 C 0 km/h
354 15-05-2010 22:44:03 11.2 C 4.66 g/m*3 11.2 C 0 km/h
355 15-05-2010 22:56:03 11.2 C 4.66 g/m*3 11.2 C 0 km/h
356 15-05-2010 23:08:03 11.1 C 4.73 g/m*3 11.1 C 0 km/h
357 15-05-2010 23:20:03 10.9 C 4.97 g/m*3 10.9 C 0 km/h
358 15-05-2010 23:32:03 10.9 C 5.07 g/m*3 10.9 C 0 km/h
359 15-05-2010 23:44:03 10.8 C 5.04 g/m*3 10.8 C 0 km/h
360 15-05-2010 23:56:03 10.5 C 5.04 g/m*3 10.5 C 0 km/h
361 16-05-2010 00:08:03 10.2 C 5.04 g/m*3 10.2 C 0 km/h
362 16-05-2010 00:20:03 10.1 C 5.3 g/m*3 10.1 C 0 km/h
363 16-05-2010 00:32:03 10.1 C 5.39 g/m*3 10.1 C 0 km/h
364 16-05-2010 00:44:03 10 C 5.45 g/m*3 10 C 0 km/h
365 16-05-2010 00:56:03 10.1 C 5.48 g/m*3 10.1 C 0 km/h
366 16-05-2010 01:08:03 10 C 5.54 g/m*3 10 C 0 km/h
367 16-05-2010 01:20:03 9.7 C 5.62 g/m*3 9.7 C 0 km/h
368 16-05-2010 01:32:03 9.3 C 5.66 g/m*3 9.3 C 0 km/h
369 16-05-2010 01:44:03 9 C 5.64 g/m*3 9 C 0 km/h
370 16-05-2010 01:56:03 8.7 C 5.88 g/m*3 8.7 C 0 km/h
371 16-05-2010 02:08:03 8.4 C 5.85 g/m*3 8.4 C 0 km/h
372 16-05-2010 02:20:03 8.2 C 5.86 g/m*3 8.2 C 0 km/h
373 16-05-2010 02:32:03 8 C 5.87 g/m*3 8 C 0 km/h
374 16-05-2010 02:44:04 7.8 C 5.96 g/m*3 7.8 C 0 km/h
375 16-05-2010 02:56:04 7.8 C 5.88 g/m*3 7.8 C 0 km/h
Sensor: Nr:Datum:Temp:Abs-Feuchte:Windchill:Wind:
Aussen-T/F 376 16-05-2010 03:08:04 7.6 C 5.88 g/m*3 7.6 C 0 km/h
377 16-05-2010 03:20:04 7.4 C 5.88 g/m*3 7.4 C 0 km/h
378 16-05-2010 03:32:04 7.4 C 5.88 g/m*3 7.4 C 0 km/h
379 16-05-2010 03:44:04 7.5 C 5.92 g/m*3 7.5 C 0 km/h
380 16-05-2010 03:56:04 7.5 C 5.92 g/m*3 7.5 C 0 km/h
381 16-05-2010 04:08:04 7.6 C 5.96 g/m*3 7.6 C 0 km/h
382 16-05-2010 04:20:04 7.6 C 5.88 g/m*3 7.6 C 0 km/h
383 16-05-2010 04:32:04 7.6 C 5.96 g/m*3 7.6 C 0 km/h
384 16-05-2010 04:44:04 7.6 C 5.96 g/m*3 7.6 C 0 km/h
385 16-05-2010 04:56:04 7.6 C 5.96 g/m*3 7.6 C 0 km/h
386 16-05-2010 05:08:04 7.6 C 5.96 g/m*3 7.6 C 0 km/h
387 16-05-2010 05:20:04 7.5 C 5.92 g/m*3 7.5 C 0 km/h
388 16-05-2010 05:32:04 7.2 C 5.89 g/m*3 7.2 C 0 km/h
389 16-05-2010 05:44:04 7 C 5.89 g/m*3 7 C 0 km/h
390 16-05-2010 05:56:04 7.2 C 5.97 g/m*3 7.2 C 0 km/h
391 16-05-2010 06:08:04 7.4 C 6.04 g/m*3 7.4 C 0 km/h
392 16-05-2010 06:20:04 7.4 C 5.96 g/m*3 7.4 C 0 km/h
393 16-05-2010 06:32:04 7.4 C 5.96 g/m*3 7.4 C 0 km/h
394 16-05-2010 06:44:04 7.4 C 5.96 g/m*3 7.4 C 0 km/h
395 16-05-2010 06:56:05 7.5 C 6 g/m*3 7.5 C 0 km/h
396 16-05-2010 07:08:05 7.7 C 6.08 g/m*3 7.7 C 0 km/h
397 16-05-2010 07:20:05 7.8 C 6.04 g/m*3 7.8 C 0 km/h
398 16-05-2010 07:32:05 7.9 C 6.08 g/m*3 7.9 C 0 km/h
399 16-05-2010 07:44:05 7.9 C 6.08 g/m*3 7.9 C 0 km/h
400 16-05-2010 07:56:05 7.9 C 6.08 g/m*3 7.9 C 0 km/h
Sensor: Nr:Datum:Temp:Abs-Feuchte:Windchill:Wind:
Aussen-T/F 401 16-05-2010 08:08:05 8 C 6.04 g/m*3 8 C 0 km/h
402 16-05-2010 08:20:05 8.2 C 6.2 g/m*3 8.2 C 0 km/h
403 16-05-2010 08:32:05 8.7 C 6.14 g/m*3 8.7 C 0 km/h
404 16-05-2010 08:44:05 9.1 C 6.03 g/m*3 9.1 C 0 km/h
405 16-05-2010 08:56:05 9.6 C 6.05 g/m*3 9.6 C 0 km/h
406 16-05-2010 09:08:02 10.2 C 5.8 g/m*3 10.2 C 0 km/h
407 16-05-2010 09:20:01 10.6 C 4.98 g/m*3 10.6 C 0 km/h
408 16-05-2010 09:32:02 11 C 4.7 g/m*3 11 C 0 km/h
409 16-05-2010 09:44:02 11.3 C 4.39 g/m*3 11.3 C 0 km/h
410 16-05-2010 09:56:02 11.7 C 4.39 g/m*3 11.7 C 0 km/h
411 16-05-2010 10:08:02 11.9 C 4.24 g/m*3 11.9 C 0 km/h
412 16-05-2010 10:20:01 12.2 C 4.1 g/m*3 12.2 C 0 km/h
413 16-05-2010 10:32:02 12.4 C 4.15 g/m*3 12.4 C 0 km/h
414 16-05-2010 10:44:02 13 C 4.31 g/m*3 13 C 0 km/h
415 16-05-2010 10:56:01 13.3 C 4.16 g/m*3 13.3 C 0 km/h
416 16-05-2010 11:08:02 13.7 C 4.03 g/m*3 13.7 C 0 km/h
417 16-05-2010 11:20:02 14.3 C 4.05 g/m*3 14.3 C 0 km/h
418 16-05-2010 11:32:02 15.4 C 4.07 g/m*3 15.4 C 0 km/h
419 16-05-2010 11:44:02 15.4 C 3.94 g/m*3 15.4 C 0 km/h
420 16-05-2010 11:56:01 15.4 C 3.81 g/m*3 15.4 C 0 km/h
421 16-05-2010 12:08:02 15.9 C 3.52 g/m*3 15.9 C 0 km/h
422 16-05-2010 12:20:02 16.1 C 3.84 g/m*3 16.1 C 0 km/h
423 16-05-2010 12:32:02 17.9 C 3.82 g/m*3 17.9 C 0 km/h
424 16-05-2010 12:44:02 17.2 C 3.37 g/m*3 17.2 C 0 km/h
425 16-05-2010 12:56:01 16.1 C 3.43 g/m*3 16.1 C 0 km/h
Sensor: Nr:Datum:Temp:Abs-Feuchte:Windchill:Wind:
Aussen-T/F 426 16-05-2010 13:08:02 18.3 C 3.6 g/m*3 18.3 C 0 km/h
427 16-05-2010 13:20:02 17.3 C 3.39 g/m*3 17.3 C 0 km/h
428 16-05-2010 13:32:01 17.4 C 3.41 g/m*3 17.4 C 0 km/h
429 16-05-2010 13:44:01 18 C 3.69 g/m*3 18 C 0 km/h
430 16-05-2010 13:56:02 17.3 C 3.54 g/m*3 17.3 C 0 km/h
431 16-05-2010 14:08:01 16.7 C 3.55 g/m*3 16.7 C 0 km/h
432 16-05-2010 14:20:02 18.4 C 3.93 g/m*3 18.4 C 0 km/h
433 16-05-2010 14:32:02 18.4 C 3.3 g/m*3 18.4 C 0 km/h
434 16-05-2010 14:44:02 17.9 C 3.51 g/m*3 17.9 C 0 km/h
435 16-05-2010 14:56:02 18.2 C 3.42 g/m*3 18.2 C 0 km/h
436 16-05-2010 15:08:02 19 C 3.26 g/m*3 19 C 0 km/h
437 16-05-2010 15:20:02 19.3 C 3.32 g/m*3 19.3 C 0 km/h
438 16-05-2010 15:32:02 19.8 C 3.42 g/m*3 19.8 C 0 km/h
439 16-05-2010 15:44:02 19.1 C 3.28 g/m*3 19.1 C 0 km/h
440 16-05-2010 15:56:02 20.3 C 3.52 g/m*3 20.3 C 0 km/h
441 16-05-2010 16:08:02 21 C 3.66 g/m*3 21 C 0 km/h
442 16-05-2010 16:20:01 20.1 C 3.48 g/m*3 20.1 C 0 km/h
443 16-05-2010 16:32:02 20.4 C 3.54 g/m*3 20.4 C 0 km/h
444 16-05-2010 16:44:02 20 C 3.46 g/m*3 20 C 0 km/h
445 16-05-2010 16:56:02 21.2 C 3.71 g/m*3 21.2 C 0 km/h
446 16-05-2010 17:08:02 21.7 C 3.82 g/m*3 21.7 C 0 km/h
447 16-05-2010 17:20:02 21.1 C 3.69 g/m*3 21.1 C 0 km/h
448 16-05-2010 17:32:02 21.5 C 3.77 g/m*3 21.5 C 0 km/h
449 16-05-2010 17:44:02 21.4 C 3.75 g/m*3 21.4 C 0 km/h
450 16-05-2010 17:56:02 20.8 C 3.62 g/m*3 20.8 C 0 km/h
Sensor: Nr:Datum:Temp:Abs-Feuchte:Windchill:Wind:
Aussen-T/F 451 16-05-2010 18:08:02 20.8 C 3.62 g/m*3 20.8 C 0 km/h
452 16-05-2010 18:20:02 20 C 3.46 g/m*3 20 C 0 km/h
453 16-05-2010 18:32:02 19.5 C 3.52 g/m*3 19.5 C 0 km/h
454 16-05-2010 18:44:02 18.9 C 3.56 g/m*3 18.9 C 0 km/h
455 16-05-2010 18:56:02 19.9 C 3.44 g/m*3 19.9 C 0 km/h
456 16-05-2010 19:08:02 19.7 C 3.57 g/m*3 19.7 C 0 km/h
457 16-05-2010 19:20:03 19.5 C 3.52 g/m*3 19.5 C 0 km/h
458 16-05-2010 19:32:02 18.6 C 3.5 g/m*3 18.6 C 0 km/h
459 16-05-2010 19:44:02 18.2 C 3.89 g/m*3 18.2 C 0 km/h
460 16-05-2010 19:56:02 18.3 C 3.91 g/m*3 18.3 C 0 km/h
461 16-05-2010 20:08:02 19.3 C 4.15 g/m*3 19.3 C 0 km/h
462 16-05-2010 20:20:02 19.3 C 4.48 g/m*3 19.3 C 0 km/h
463 16-05-2010 20:32:02 18.2 C 4.51 g/m*3 18.2 C 0 km/h
464 16-05-2010 20:44:02 17 C 4.63 g/m*3 17 C 0 km/h
465 16-05-2010 20:56:02 16 C 4.5 g/m*3 16 C 0 km/h
466 16-05-2010 21:08:02 15.1 C 4.52 g/m*3 15.1 C 0 km/h
467 16-05-2010 21:20:02 14.6 C 4.63 g/m*3 14.6 C 0 km/h
468 16-05-2010 21:32:02 14.2 C 4.76 g/m*3 14.2 C 0 km/h
469 16-05-2010 21:44:02 13.9 C 4.92 g/m*3 13.9 C 0 km/h
470 16-05-2010 21:56:02 13.6 C 5.18 g/m*3 13.6 C 0 km/h
471 16-05-2010 22:08:02 13.2 C 5.05 g/m*3 13.2 C 0 km/h
472 16-05-2010 22:20:03 12.6 C 5.31 g/m*3 12.6 C 0 km/h
473 16-05-2010 22:33:03 12.3 C 5.32 g/m*3 12.3 C 0 km/h
474 16-05-2010 22:45:03 11.9 C 5.4 g/m*3 11.9 C 0 km/h
475 16-05-2010 22:57:03 11.8 C 5.58 g/m*3 11.8 C 0 km/h
Sensor: Nr:Datum:Temp:Abs-Feuchte:Windchill:Wind:
Aussen-T/F 476 16-05-2010 23:09:03 11.4 C 5.65 g/m*3 11.4 C 0 km/h
477 16-05-2010 23:21:03 11 C 5.71 g/m*3 11 C 0 km/h
478 16-05-2010 23:33:03 10.7 C 5.8 g/m*3 10.7 C 0 km/h
479 16-05-2010 23:45:03 10.7 C 5.89 g/m*3 10.7 C 0 km/h
480 16-05-2010 23:57:03 10.5 C 6.01 g/m*3 10.5 C 0 km/h
481 17-05-2010 00:09:03 10.3 C 6.03 g/m*3 10.3 C 0 km/h
482 17-05-2010 00:21:03 10.4 C 5.98 g/m*3 10.4 C 0 km/h
483 17-05-2010 00:33:03 10 C 5.92 g/m*3 10 C 0 km/h
484 17-05-2010 00:45:03 10 C 5.92 g/m*3 10 C 0 km/h
485 17-05-2010 00:57:03 9.9 C 5.98 g/m*3 9.9 C 0 km/h
486 17-05-2010 01:09:03 9.8 C 5.85 g/m*3 9.8 C 0 km/h
487 17-05-2010 01:21:04 9.7 C 5.99 g/m*3 9.7 C 0 km/h
488 17-05-2010 01:33:04 9.3 C 6.02 g/m*3 9.3 C 0 km/h
489 17-05-2010 01:45:04 9 C 5.99 g/m*3 9 C 0 km/h
490 17-05-2010 01:57:04 9 C 6.08 g/m*3 9 C 0 km/h
491 17-05-2010 02:09:04 8.7 C 6.14 g/m*3 8.7 C 0 km/h
492 17-05-2010 02:21:04 8.6 C 6.1 g/m*3 8.6 C 0 km/h
493 17-05-2010 02:33:04 8.6 C 6.19 g/m*3 8.6 C 0 km/h
494 17-05-2010 02:45:04 8.5 C 6.15 g/m*3 8.5 C 0 km/h
495 17-05-2010 02:57:04 8.4 C 6.11 g/m*3 8.4 C 0 km/h
496 17-05-2010 03:09:04 8.1 C 6.07 g/m*3 8.1 C 0 km/h
497 17-05-2010 03:21:04 7.8 C 6.12 g/m*3 7.8 C 0 km/h
498 17-05-2010 03:33:04 7.6 C 6.12 g/m*3 7.6 C 0 km/h
499 17-05-2010 03:45:04 7.4 C 6.12 g/m*3 7.4 C 0 km/h
500 17-05-2010 03:57:04 7.3 C 6.16 g/m*3 7.3 C 0 km/h
Sensor: Nr:Datum:Temp:Abs-Feuchte:Windchill:Wind:
Aussen-T/F 501 17-05-2010 04:09:04 7.2 C 6.12 g/m*3 7.2 C 0 km/h
502 17-05-2010 04:21:04 7.1 C 6.08 g/m*3 7.1 C 0 km/h
503 17-05-2010 04:33:04 7 C 6.04 g/m*3 7 C 0 km/h
504 17-05-2010 04:45:04 6.8 C 6.12 g/m*3 6.8 C 0 km/h
505 17-05-2010 04:57:04 6.7 C 6.15 g/m*3 6.7 C 0 km/h
506 17-05-2010 05:09:04 6.5 C 6.15 g/m*3 6.5 C 0 km/h
507 17-05-2010 05:21:04 6.3 C 6.07 g/m*3 6.3 C 0 km/h
508 17-05-2010 05:33:04 6.2 C 6.1 g/m*3 6.2 C 0 km/h
509 17-05-2010 05:45:05 6.1 C 6.06 g/m*3 6.1 C 0 km/h
510 17-05-2010 05:57:05 6 C 6.02 g/m*3 6 C 0 km/h
511 17-05-2010 06:09:05 6 C 6.1 g/m*3 6 C 0 km/h
512 17-05-2010 06:21:05 6 C 6.02 g/m*3 6 C 0 km/h
513 17-05-2010 06:33:03 6 C 6.02 g/m*3 6 C 0 km/h
514 17-05-2010 06:45:02 5.9 C 6.06 g/m*3 5.9 C 0 km/h
515 17-05-2010 06:57:02 6.1 C 6.06 g/m*3 6.1 C 0 km/h
516 17-05-2010 07:09:01 6.3 C 6.14 g/m*3 6.3 C 0 km/h
517 17-05-2010 07:21:02 6.5 C 6.15 g/m*3 6.5 C 0 km/h
518 17-05-2010 07:33:01 7.2 C 6.2 g/m*3 7.2 C 0 km/h
519 17-05-2010 07:45:02 7.4 C 6.2 g/m*3 7.4 C 0 km/h
520 17-05-2010 07:57:02 8 C 6.2 g/m*3 8 C 0 km/h
521 17-05-2010 08:09:01 8.3 C 6.24 g/m*3 8.3 C 0 km/h
522 17-05-2010 08:21:02 8.8 C 6.35 g/m*3 8.8 C 0 km/h
523 17-05-2010 08:33:02 9.2 C 6.25 g/m*3 9.2 C 0 km/h
524 17-05-2010 08:45:02 10.1 C 6.24 g/m*3 10.1 C 0 km/h
525 17-05-2010 08:57:02 10.7 C 6.29 g/m*3 10.7 C 0 km/h
Sensor: Nr:Datum:Temp:Abs-Feuchte:Windchill:Wind:
Aussen-T/F 526 17-05-2010 09:09:02 11.2 C 6.28 g/m*3 11.2 C 0 km/h
527 17-05-2010 09:21:02 11.6 C 6.44 g/m*3 11.6 C 0 km/h
528 17-05-2010 09:33:02 12.2 C 6.47 g/m*3 12.2 C 0 km/h
529 17-05-2010 09:45:02 12.2 C 6.47 g/m*3 12.2 C 0 km/h
530 17-05-2010 09:57:02 12.2 C 6.47 g/m*3 12.2 C 0 km/h
531 17-05-2010 10:09:02 13 C 6.35 g/m*3 13 C 0 km/h
532 17-05-2010 10:21:02 13.2 C 6.2 g/m*3 13.2 C 0 km/h
533 17-05-2010 10:33:03 13.7 C 6.39 g/m*3 13.7 C 0 km/h
534 17-05-2010 10:45:02 14.1 C 6.55 g/m*3 14.1 C 0 km/h
535 17-05-2010 10:57:03 14.5 C 6.47 g/m*3 14.5 C 0 km/h
536 17-05-2010 11:09:01 14.1 C 6.55 g/m*3 14.1 C 0 km/h
537 17-05-2010 11:21:02 13.9 C 6.83 g/m*3 13.9 C 0 km/h
538 17-05-2010 11:33:02 13.5 C 6.67 g/m*3 13.5 C 0 km/h
539 17-05-2010 11:45:02 13.5 C 7.13 g/m*3 13.5 C 0 km/h
540 17-05-2010 11:57:02 13 C 7.14 g/m*3 13 C 0 km/h
541 17-05-2010 12:09:02 13.2 C 7.23 g/m*3 13.2 C 0 km/h
542 17-05-2010 12:21:02 13 C 7.48 g/m*3 13 C 0 km/h
543 17-05-2010 12:33:02 13.2 C 7.69 g/m*3 13.2 C 0 km/h
544 17-05-2010 12:45:01 14.2 C 7.45 g/m*3 14.2 C 0 km/h
545 17-05-2010 12:57:01 15.8 C 7.27 g/m*3 15.8 C 0 km/h
546 17-05-2010 13:09:02 15.4 C 6.7 g/m*3 15.4 C 0 km/h
547 17-05-2010 13:21:01 16.9 C 6.9 g/m*3 16.9 C 0 km/h
548 17-05-2010 13:33:01 18.1 C 6.49 g/m*3 18.1 C 0 km/h
549 17-05-2010 13:45:01 17.7 C 6.04 g/m*3 17.7 C 0 km/h
550 17-05-2010 13:57:01 15 C 7.05 g/m*3 15 C 0 km/h
Sensor: Nr:Datum:Temp:Abs-Feuchte:Windchill:Wind:
Aussen-T/F 551 17-05-2010 14:09:02 15.6 C 7.05 g/m*3 15.6 C 0 km/h
552 17-05-2010 14:21:01 15.5 C 7.4 g/m*3 15.5 C 0 km/h
553 17-05-2010 14:33:01 17.1 C 6.7 g/m*3 17.1 C 0 km/h
554 17-05-2010 14:45:01 16.5 C 6.46 g/m*3 16.5 C 0 km/h
555 17-05-2010 14:57:01 14.7 C 7.18 g/m*3 14.7 C 0 km/h
556 17-05-2010 15:09:02 12.6 C 8.3 g/m*3 12.6 C 0 km/h
557 17-05-2010 15:21:02 12.6 C 9.07 g/m*3 12.6 C 0 km/h
558 17-05-2010 15:33:01 12.9 C 9.58 g/m*3 12.9 C 0 km/h
559 17-05-2010 15:45:02 12.7 C 9.57 g/m*3 12.7 C 0 km/h
560 17-05-2010 15:57:02 12.5 C 9.57 g/m*3 12.5 C 0 km/h
561 17-05-2010 16:09:01 13.3 C 10.05 g/m*3 13.3 C 0 km/h
562 17-05-2010 16:21:02 13.8 C 9.89 g/m*3 13.8 C 0 km/h
563 17-05-2010 16:33:01 13.7 C 9.24 g/m*3 13.7 C 0 km/h
564 17-05-2010 16:45:02 13.1 C 8.9 g/m*3 13.1 C 0 km/h
565 17-05-2010 16:57:02 13.3 C 9.24 g/m*3 13.3 C 0 km/h
566 17-05-2010 17:09:01 13.8 C 9.29 g/m*3 13.8 C 0 km/h
567 17-05-2010 17:21:01 14.1 C 8.98 g/m*3 14.1 C 0 km/h
568 17-05-2010 17:33:01 13.9 C 8.99 g/m*3 13.9 C 0 km/h
569 17-05-2010 17:45:02 13.7 C 8.64 g/m*3 13.7 C 0 km/h
570 17-05-2010 17:57:02 13.8 C 8.7 g/m*3 13.8 C 0 km/h
571 17-05-2010 18:09:02 13.6 C 8.47 g/m*3 13.6 C 0 km/h
572 17-05-2010 18:21:02 14.4 C 8.9 g/m*3 14.4 C 0 km/h
573 17-05-2010 18:33:02 11.8 C 6.63 g/m*3 11.8 C 0 km/h
574 17-05-2010 18:45:01 10.7 C 6.88 g/m*3 10.7 C 0 km/h
575 17-05-2010 18:57:01 10 C 7.24 g/m*3 10 C 0 km/h
Sensor: Nr:Datum:Temp:Abs-Feuchte:Windchill:Wind:
Aussen-T/F 576 17-05-2010 19:09:02 9.8 C 7.7 g/m*3 9.8 C 0 km/h
577 17-05-2010 19:21:01 10.3 C 7.85 g/m*3 10.3 C 0 km/h
578 17-05-2010 19:33:02 10.3 C 7.95 g/m*3 10.3 C 0 km/h
579 17-05-2010 19:45:02 9.8 C 7.7 g/m*3 9.8 C 0 km/h
580 17-05-2010 19:57:02 10 C 7.8 g/m*3 10 C 0 km/h
581 17-05-2010 20:09:02 9.8 C 7.89 g/m*3 9.8 C 0 km/h
582 17-05-2010 20:21:01 9.5 C 7.83 g/m*3 9.5 C 0 km/h
583 17-05-2010 20:33:02 9.5 C 7.92 g/m*3 9.5 C 0 km/h
584 17-05-2010 20:45:02 9.4 C 7.87 g/m*3 9.4 C 0 km/h
585 17-05-2010 20:57:02 9.1 C 7.81 g/m*3 9.1 C 0 km/h
586 17-05-2010 21:09:02 9 C 7.76 g/m*3 9 C 0 km/h
587 17-05-2010 21:21:02 9 C 7.85 g/m*3 9 C 0 km/h
588 17-05-2010 21:33:02 9 C 7.85 g/m*3 9 C 0 km/h
589 17-05-2010 21:45:02 8.7 C 7.78 g/m*3 8.7 C 0 km/h
590 17-05-2010 21:57:02 8.7 C 7.87 g/m*3 8.7 C 0 km/h
591 17-05-2010 22:09:02 8.3 C 7.67 g/m*3 8.3 C 0 km/h
592 17-05-2010 22:21:02 8.6 C 7.82 g/m*3 8.6 C 0 km/h
593 17-05-2010 22:34:03 8.7 C 7.96 g/m*3 8.7 C 0 km/h
594 17-05-2010 22:46:03 8.5 C 7.85 g/m*3 8.5 C 0 km/h
595 17-05-2010 22:58:03 8.4 C 7.8 g/m*3 8.4 C 0 km/h
596 17-05-2010 23:10:04 8.1 C 7.57 g/m*3 8.1 C 0 km/h
597 17-05-2010 23:22:04 7.8 C 7.51 g/m*3 7.8 C 0 km/h
598 17-05-2010 23:34:04 7.8 C 7.51 g/m*3 7.8 C 0 km/h
599 17-05-2010 23:46:04 7.7 C 7.54 g/m*3 7.7 C 0 km/h
600 17-05-2010 23:58:04 7.6 C 7.49 g/m*3 7.6 C 0 km/h
Sensor: Nr:Datum:Temp:Abs-Feuchte:Windchill:Wind:
Aussen-T/F 601 18-05-2010 00:10:04 7.4 C 7.32 g/m*3 7.4 C 0 km/h
602 18-05-2010 00:22:04 7.1 C 7.18 g/m*3 7.1 C 0 km/h
603 18-05-2010 00:34:04 7 C 7.13 g/m*3 7 C 0 km/h
604 18-05-2010 00:46:04 7 C 7.13 g/m*3 7 C 0 km/h
605 18-05-2010 00:58:04 6.9 C 7.16 g/m*3 6.9 C 0 km/h
606 18-05-2010 01:10:04 6.8 C 7.11 g/m*3 6.8 C 0 km/h
607 18-05-2010 01:22:04 6.6 C 7.02 g/m*3 6.6 C 0 km/h
608 18-05-2010 01:34:04 6.4 C 6.85 g/m*3 6.4 C 0 km/h
609 18-05-2010 01:46:04 6.3 C 6.88 g/m*3 6.3 C 0 km/h
610 18-05-2010 01:58:04 6.2 C 6.84 g/m*3 6.2 C 0 km/h
611 18-05-2010 02:10:04 6.3 C 6.88 g/m*3 6.3 C 0 km/h
612 18-05-2010 02:22:04 6.2 C 6.84 g/m*3 6.2 C 0 km/h
613 18-05-2010 02:34:04 6.1 C 6.79 g/m*3 6.1 C 0 km/h
614 18-05-2010 02:46:04 6 C 6.75 g/m*3 6 C 0 km/h
615 18-05-2010 02:58:04 5.9 C 6.71 g/m*3 5.9 C 0 km/h
616 18-05-2010 03:10:04 5.8 C 6.66 g/m*3 5.8 C 0 km/h
617 18-05-2010 03:22:04 5.7 C 6.62 g/m*3 5.7 C 0 km/h
618 18-05-2010 03:34:05 5.7 C 6.69 g/m*3 5.7 C 0 km/h
619 18-05-2010 03:46:05 5.8 C 6.73 g/m*3 5.8 C 0 km/h
620 18-05-2010 03:58:05 6 C 6.75 g/m*3 6 C 0 km/h
621 18-05-2010 04:10:05 6.3 C 6.96 g/m*3 6.3 C 0 km/h
622 18-05-2010 04:22:05 6.3 C 6.96 g/m*3 6.3 C 0 km/h
623 18-05-2010 04:34:05 6.3 C 6.96 g/m*3 6.3 C 0 km/h
624 18-05-2010 04:46:05 6.2 C 6.91 g/m*3 6.2 C 0 km/h
625 18-05-2010 04:58:05 6.3 C 6.88 g/m*3 6.3 C 0 km/h
Sensor: Nr:Datum:Temp:Abs-Feuchte:Windchill:Wind:
Aussen-T/F 626 18-05-2010 05:10:05 6.4 C 7 g/m*3 6.4 C 0 km/h
627 18-05-2010 05:22:05 6.5 C 7.05 g/m*3 6.5 C 0 km/h
628 18-05-2010 05:34:05 6.4 C 6.93 g/m*3 6.4 C 0 km/h
629 18-05-2010 05:46:05 6.5 C 6.97 g/m*3 6.5 C 0 km/h
630 18-05-2010 05:58:05 6.7 C 7.07 g/m*3 6.7 C 0 km/h
631 18-05-2010 06:10:05 6.9 C 7.16 g/m*3 6.9 C 0 km/h
632 18-05-2010 06:22:05 6.9 C 7.16 g/m*3 6.9 C 0 km/h
633 18-05-2010 06:34:05 7.1 C 7.18 g/m*3 7.1 C 0 km/h
634 18-05-2010 06:46:05 7.3 C 7.27 g/m*3 7.3 C 0 km/h
635 18-05-2010 06:58:05 7.5 C 7.28 g/m*3 7.5 C 0 km/h
636 18-05-2010 07:10:04 7.9 C 7.47 g/m*3 7.9 C 0 km/h
637 18-05-2010 07:22:03 7.9 C 7.39 g/m*3 7.9 C 0 km/h
638 18-05-2010 07:34:03 8 C 7.36 g/m*3 8 C 0 km/h
639 18-05-2010 07:46:01 8.5 C 7.6 g/m*3 8.5 C 0 km/h
640 18-05-2010 07:58:01 8.7 C 7.52 g/m*3 8.7 C 0 km/h
641 18-05-2010 08:10:02 9 C 7.23 g/m*3 9 C 0 km/h
642 18-05-2010 08:22:01 8.7 C 6.66 g/m*3 8.7 C 0 km/h
643 18-05-2010 08:34:02 9 C 6.44 g/m*3 9 C 0 km/h
644 18-05-2010 08:46:02 9.3 C 6.56 g/m*3 9.3 C 0 km/h
645 18-05-2010 08:58:02 9.2 C 6.52 g/m*3 9.2 C 0 km/h
646 18-05-2010 09:10:01 9.3 C 6.47 g/m*3 9.3 C 0 km/h
647 18-05-2010 09:22:02 9.6 C 6.41 g/m*3 9.6 C 0 km/h
648 18-05-2010 09:34:01 9.9 C 6.35 g/m*3 9.9 C 0 km/h
649 18-05-2010 09:46:02 9.7 C 6.08 g/m*3 9.7 C 0 km/h
650 18-05-2010 09:58:02 10 C 6.01 g/m*3 10 C 0 km/h
Sensor: Nr:Datum:Temp:Abs-Feuchte:Windchill:Wind:
Aussen-T/F 651 18-05-2010 10:10:01 10.5 C 6.01 g/m*3 10.5 C 0 km/h
652 18-05-2010 10:22:01 10.5 C 6.01 g/m*3 10.5 C 0 km/h
653 18-05-2010 10:34:02 10.6 C 5.66 g/m*3 10.6 C 0 km/h
654 18-05-2010 10:46:02 11.2 C 5.57 g/m*3 11.2 C 0 km/h
655 18-05-2010 10:58:02 11.4 C 5.65 g/m*3 11.4 C 0 km/h
656 18-05-2010 11:10:02 12.5 C 5.61 g/m*3 12.5 C 0 km/h
657 18-05-2010 11:22:02 12.4 C 5.24 g/m*3 12.4 C 0 km/h
658 18-05-2010 11:34:02 12.1 C 5.25 g/m*3 12.1 C 0 km/h
659 18-05-2010 11:46:02 13 C 5.22 g/m*3 13 C 0 km/h
660 18-05-2010 11:58:02 13.7 C 5.21 g/m*3 13.7 C 0 km/h
661 18-05-2010 12:10:03 13.7 C 4.86 g/m*3 13.7 C 0 km/h
662 18-05-2010 12:22:02 12.7 C 5.12 g/m*3 12.7 C 0 km/h
663 18-05-2010 12:34:02 14.2 C 5.13 g/m*3 14.2 C 0 km/h
664 18-05-2010 12:46:01 14.4 C 4.82 g/m*3 14.4 C 0 km/h
665 18-05-2010 12:58:01 15.2 C 4.67 g/m*3 15.2 C 0 km/h
666 18-05-2010 13:10:02 16.8 C 5 g/m*3 16.8 C 0 km/h
667 18-05-2010 13:22:01 16.9 C 4.46 g/m*3 16.9 C 0 km/h
668 18-05-2010 13:34:01 16.5 C 4.49 g/m*3 16.5 C 0 km/h
669 18-05-2010 13:46:01 17.8 C 4.4 g/m*3 17.8 C 0 km/h
670 18-05-2010 13:58:01 15.8 C 4.04 g/m*3 15.8 C 0 km/h
671 18-05-2010 14:10:02 15.1 C 4.13 g/m*3 15.1 C 0 km/h
672 18-05-2010 14:22:01 15.8 C 4.17 g/m*3 15.8 C 0 km/h
673 18-05-2010 14:34:01 15 C 4.23 g/m*3 15 C 0 km/h
674 18-05-2010 14:46:01 15.8 C 4.31 g/m*3 15.8 C 0 km/h
675 18-05-2010 14:58:01 16.3 C 4.16 g/m*3 16.3 C 0 km/h
Sensor: Nr:Datum:Temp:Abs-Feuchte:Windchill:Wind:
Aussen-T/F 676 18-05-2010 15:10:02 16.4 C 4.47 g/m*3 16.4 C 0 km/h
677 18-05-2010 15:22:02 16.5 C 4.21 g/m*3 16.5 C 0 km/h
678 18-05-2010 15:34:01 16.6 C 3.96 g/m*3 16.6 C 0 km/h
679 18-05-2010 15:46:02 16 C 3.95 g/m*3 16 C 0 km/h
680 18-05-2010 15:58:02 16.9 C 4.17 g/m*3 16.9 C 0 km/h
681 18-05-2010 16:10:01 18.2 C 4.04 g/m*3 18.2 C 0 km/h
682 18-05-2010 16:22:02 18.2 C 3.89 g/m*3 18.2 C 0 km/h
683 18-05-2010 16:34:01 17.9 C 3.05 g/m*3 17.9 C 0 km/h
684 18-05-2010 16:46:02 17.6 C 3.3 g/m*3 17.6 C 0 km/h
685 18-05-2010 16:58:02 16.8 C 3.29 g/m*3 16.8 C 0 km/h
686 18-05-2010 17:10:02 16.6 C 3.53 g/m*3 16.6 C 0 km/h
687 18-05-2010 17:22:02 17.7 C 3.77 g/m*3 17.7 C 0 km/h
688 18-05-2010 17:34:02 17.5 C 4.03 g/m*3 17.5 C 0 km/h
689 18-05-2010 17:46:02 16.8 C 3.86 g/m*3 16.8 C 0 km/h
690 18-05-2010 17:58:02 17.2 C 3.66 g/m*3 17.2 C 0 km/h
691 18-05-2010 18:10:01 18.2 C 3.57 g/m*3 18.2 C 0 km/h
692 18-05-2010 18:22:02 18.2 C 3.73 g/m*3 18.2 C 0 km/h
693 18-05-2010 18:34:02 16.9 C 3.88 g/m*3 16.9 C 0 km/h
694 18-05-2010 18:46:02 16.2 C 4.14 g/m*3 16.2 C 0 km/h
695 18-05-2010 18:58:02 16.4 C 4.33 g/m*3 16.4 C 0 km/h
696 18-05-2010 19:10:02 15.7 C 4.42 g/m*3 15.7 C 0 km/h
697 18-05-2010 19:22:02 16.1 C 4.25 g/m*3 16.1 C 0 km/h
698 18-05-2010 19:34:03 15.3 C 4.31 g/m*3 15.3 C 0 km/h
699 18-05-2010 19:46:02 14.8 C 4.56 g/m*3 14.8 C 0 km/h
700 18-05-2010 19:58:02 14.7 C 4.66 g/m*3 14.7 C 0 km/h
Sensor: Nr:Datum:Temp:Abs-Feuchte:Windchill:Wind:
Aussen-T/F 701 18-05-2010 20:10:02 14.5 C 4.6 g/m*3 14.5 C 0 km/h
702 18-05-2010 20:22:01 14.4 C 4.94 g/m*3 14.4 C 0 km/h
703 18-05-2010 20:34:02 14.5 C 4.85 g/m*3 14.5 C 0 km/h
704 18-05-2010 20:46:02 14.1 C 4.85 g/m*3 14.1 C 0 km/h
705 18-05-2010 20:58:02 13.8 C 4.89 g/m*3 13.8 C 0 km/h
706 18-05-2010 21:10:02 13.5 C 5.03 g/m*3 13.5 C 0 km/h
707 18-05-2010 21:22:02 13.1 C 4.79 g/m*3 13.1 C 0 km/h
708 18-05-2010 21:34:02 12.6 C 4.76 g/m*3 12.6 C 0 km/h
709 18-05-2010 21:46:02 12.4 C 4.48 g/m*3 12.4 C 0 km/h
710 18-05-2010 21:58:02 12.4 C 4.37 g/m*3 12.4 C 0 km/h
711 18-05-2010 22:10:02 12 C 4.37 g/m*3 12 C 0 km/h
712 18-05-2010 22:22:02 11.7 C 4.39 g/m*3 11.7 C 0 km/h
713 18-05-2010 22:35:02 11.5 C 4.44 g/m*3 11.5 C 0 km/h
714 18-05-2010 22:47:02 11.2 C 4.66 g/m*3 11.2 C 0 km/h
715 18-05-2010 22:59:02 10.8 C 4.94 g/m*3 10.8 C 0 km/h
716 18-05-2010 23:11:02 10.5 C 5.04 g/m*3 10.5 C 0 km/h
717 18-05-2010 23:23:02 10.2 C 5.33 g/m*3 10.2 C 0 km/h
718 18-05-2010 23:35:03 9.9 C 5.51 g/m*3 9.9 C 0 km/h
719 18-05-2010 23:47:03 9.7 C 5.53 g/m*3 9.7 C 0 km/h
720 18-05-2010 23:59:03 9.6 C 5.59 g/m*3 9.6 C 0 km/h
721 19-05-2010 00:11:03 9.4 C 5.79 g/m*3 9.4 C 0 km/h
722 19-05-2010 00:23:03 9.4 C 5.79 g/m*3 9.4 C 0 km/h
723 19-05-2010 00:35:03 9.3 C 5.75 g/m*3 9.3 C 0 km/h
724 19-05-2010 00:47:03 9.3 C 5.75 g/m*3 9.3 C 0 km/h
725 19-05-2010 00:59:03 9.2 C 5.71 g/m*3 9.2 C 0 km/h
Sensor: Nr:Datum:Temp:Abs-Feuchte:Windchill:Wind:
Aussen-T/F 726 19-05-2010 01:11:03 9.2 C 5.54 g/m*3 9.2 C 0 km/h
727 19-05-2010 01:23:03 9.3 C 5.39 g/m*3 9.3 C 0 km/h
728 19-05-2010 01:35:03 9.3 C 5.3 g/m*3 9.3 C 0 km/h
729 19-05-2010 01:47:03 9.3 C 5.3 g/m*3 9.3 C 0 km/h
730 19-05-2010 01:59:03 9.3 C 5.3 g/m*3 9.3 C 0 km/h
731 19-05-2010 02:11:03 9.2 C 5.27 g/m*3 9.2 C 0 km/h
732 19-05-2010 02:23:03 9.1 C 5.32 g/m*3 9.1 C 0 km/h
733 19-05-2010 02:35:03 9.2 C 5.36 g/m*3 9.2 C 0 km/h
734 19-05-2010 02:47:03 9 C 5.29 g/m*3 9 C 0 km/h
735 19-05-2010 02:59:03 8.8 C 5.4 g/m*3 8.8 C 0 km/h
736 19-05-2010 03:11:03 8.8 C 5.4 g/m*3 8.8 C 0 km/h
737 19-05-2010 03:23:03 8.8 C 5.31 g/m*3 8.8 C 0 km/h
738 19-05-2010 03:35:03 8.7 C 5.36 g/m*3 8.7 C 0 km/h
739 19-05-2010 03:47:03 8.6 C 5.33 g/m*3 8.6 C 0 km/h
740 19-05-2010 03:59:03 8.5 C 5.38 g/m*3 8.5 C 0 km/h
741 19-05-2010 04:11:04 8.4 C 5.43 g/m*3 8.4 C 0 km/h
742 19-05-2010 04:23:04 8.2 C 5.44 g/m*3 8.2 C 0 km/h
743 19-05-2010 04:35:04 8.1 C 5.49 g/m*3 8.1 C 0 km/h
744 19-05-2010 04:47:04 8.1 C 5.66 g/m*3 8.1 C 0 km/h
745 19-05-2010 04:59:04 8 C 5.7 g/m*3 8 C 0 km/h
746 19-05-2010 05:11:04 8 C 5.7 g/m*3 8 C 0 km/h
747 19-05-2010 05:23:04 7.9 C 5.83 g/m*3 7.9 C 0 km/h
748 19-05-2010 05:35:04 7.9 C 5.91 g/m*3 7.9 C 0 km/h
749 19-05-2010 05:47:04 7.9 C 5.91 g/m*3 7.9 C 0 km/h
750 19-05-2010 05:59:04 7.9 C 5.91 g/m*3 7.9 C 0 km/h
Sensor: Nr:Datum:Temp:Abs-Feuchte:Windchill:Wind:
Aussen-T/F 751 19-05-2010 06:11:04 7.8 C 5.96 g/m*3 7.8 C 0 km/h
752 19-05-2010 06:23:04 8 C 5.95 g/m*3 8 C 0 km/h
753 19-05-2010 06:35:04 8.1 C 5.91 g/m*3 8.1 C 0 km/h
754 19-05-2010 06:47:04 8.1 C 5.91 g/m*3 8.1 C 0 km/h
755 19-05-2010 06:59:04 8.2 C 5.95 g/m*3 8.2 C 0 km/h
756 19-05-2010 07:11:02 8.4 C 6.02 g/m*3 8.4 C 0 km/h
757 19-05-2010 07:23:02 8.5 C 5.89 g/m*3 8.5 C 0 km/h
758 19-05-2010 07:35:02 8.6 C 5.84 g/m*3 8.6 C 0 km/h
759 19-05-2010 07:47:02 8.7 C 5.88 g/m*3 8.7 C 0 km/h
760 19-05-2010 07:59:02 9.1 C 5.86 g/m*3 9.1 C 0 km/h
761 19-05-2010 08:11:02 9.1 C 5.68 g/m*3 9.1 C 0 km/h
762 19-05-2010 08:23:02 9.3 C 5.66 g/m*3 9.3 C 0 km/h
763 19-05-2010 08:35:02 9 C 5.55 g/m*3 9 C 0 km/h
764 19-05-2010 08:47:02 9.1 C 5.59 g/m*3 9.1 C 0 km/h
765 19-05-2010 08:59:02 9.2 C 5.63 g/m*3 9.2 C 0 km/h
766 19-05-2010 09:11:01 8.9 C 5.69 g/m*3 8.9 C 0 km/h
767 19-05-2010 09:23:01 9.1 C 5.77 g/m*3 9.1 C 0 km/h
768 19-05-2010 09:35:01 9.2 C 5.71 g/m*3 9.2 C 0 km/h
769 19-05-2010 09:47:02 9.2 C 5.71 g/m*3 9.2 C 0 km/h
770 19-05-2010 09:59:02 9.5 C 5.73 g/m*3 9.5 C 0 km/h
771 19-05-2010 10:11:02 9.6 C 5.77 g/m*3 9.6 C 0 km/h
772 19-05-2010 10:23:02 9.6 C 5.68 g/m*3 9.6 C 0 km/h
773 19-05-2010 10:35:01 9.8 C 5.75 g/m*3 9.8 C 0 km/h
774 19-05-2010 10:47:02 9.5 C 5.64 g/m*3 9.5 C 0 km/h
775 19-05-2010 10:59:02 9.6 C 5.77 g/m*3 9.6 C 0 km/h
Sensor: Nr:Datum:Temp:Abs-Feuchte:Windchill:Wind:
Aussen-T/F 776 19-05-2010 11:11:01 9.7 C 5.81 g/m*3 9.7 C 0 km/h
777 19-05-2010 11:23:02 10.1 C 5.77 g/m*3 10.1 C 0 km/h
778 19-05-2010 11:35:02 10.3 C 5.84 g/m*3 10.3 C 0 km/h
779 19-05-2010 11:47:02 10.7 C 5.89 g/m*3 10.7 C 0 km/h
780 19-05-2010 11:59:02 10.3 C 5.75 g/m*3 10.3 C 0 km/h
781 19-05-2010 12:11:02 10.7 C 5.99 g/m*3 10.7 C 0 km/h
782 19-05-2010 12:23:02 10.9 C 5.97 g/m*3 10.9 C 0 km/h
783 19-05-2010 12:35:02 10.7 C 5.8 g/m*3 10.7 C 0 km/h
784 19-05-2010 12:47:02 11.1 C 5.64 g/m*3 11.1 C 0 km/h
785 19-05-2010 12:59:02 11.7 C 5.75 g/m*3 11.7 C 0 km/h
786 19-05-2010 13:11:02 11.9 C 5.61 g/m*3 11.9 C 0 km/h
787 19-05-2010 13:23:01 11.7 C 5.33 g/m*3 11.7 C 0 km/h
788 19-05-2010 13:35:02 11.5 C 5.99 g/m*3 11.5 C 0 km/h
789 19-05-2010 13:47:02 11.3 C 6.32 g/m*3 11.3 C 0 km/h
790 19-05-2010 13:59:02 11.3 C 6.32 g/m*3 11.3 C 0 km/h
791 19-05-2010 14:11:02 11.4 C 6.47 g/m*3 11.4 C 0 km/h
792 19-05-2010 14:23:02 11.2 C 6.39 g/m*3 11.2 C 0 km/h
793 19-05-2010 14:35:02 10.9 C 6.76 g/m*3 10.9 C 0 km/h
794 19-05-2010 14:47:02 11.9 C 7.31 g/m*3 11.9 C 0 km/h
795 19-05-2010 14:59:02 11.9 C 6.99 g/m*3 11.9 C 0 km/h
796 19-05-2010 15:11:02 11.8 C 7.37 g/m*3 11.8 C 0 km/h
797 19-05-2010 15:23:02 11.5 C 7.64 g/m*3 11.5 C 0 km/h
798 19-05-2010 15:35:02 11.4 C 7.9 g/m*3 11.4 C 0 km/h
799 19-05-2010 15:47:02 11.1 C 7.86 g/m*3 11.1 C 0 km/h
800 19-05-2010 15:59:02 11.2 C 8.01 g/m*3 11.2 C 0 km/h
Sensor: Nr:Datum:Temp:Abs-Feuchte:Windchill:Wind:
Aussen-T/F 801 19-05-2010 16:11:02 11 C 8.01 g/m*3 11 C 0 km/h
802 19-05-2010 16:23:02 10.8 C 8.01 g/m*3 10.8 C 0 km/h
803 19-05-2010 16:35:02 10.7 C 8.05 g/m*3 10.7 C 0 km/h
804 19-05-2010 16:47:02 10.8 C 8.2 g/m*3 10.8 C 0 km/h
805 19-05-2010 16:59:02 10.6 C 8.1 g/m*3 10.6 C 0 km/h
806 19-05-2010 17:11:02 10.7 C 8.25 g/m*3 10.7 C 0 km/h
807 19-05-2010 17:23:03 10.6 C 8.3 g/m*3 10.6 C 0 km/h
808 19-05-2010 17:35:02 10.7 C 8.35 g/m*3 10.7 C 0 km/h
809 19-05-2010 17:47:02 10.7 C 8.35 g/m*3 10.7 C 0 km/h
810 19-05-2010 17:59:02 10.7 C 8.35 g/m*3 10.7 C 0 km/h
811 19-05-2010 18:11:02 11.1 C 8.46 g/m*3 11.1 C 0 km/h
812 19-05-2010 18:23:03 11.1 C 8.36 g/m*3 11.1 C 0 km/h
813 19-05-2010 18:35:02 11.1 C 8.16 g/m*3 11.1 C 0 km/h
814 19-05-2010 18:47:02 11.2 C 8.11 g/m*3 11.2 C 0 km/h
815 19-05-2010 18:59:02 11.2 C 8.01 g/m*3 11.2 C 0 km/h
816 19-05-2010 19:11:02 11.3 C 7.96 g/m*3 11.3 C 0 km/h
817 19-05-2010 19:23:02 11.4 C 8.01 g/m*3 11.4 C 0 km/h
818 19-05-2010 19:35:02 11.5 C 8.06 g/m*3 11.5 C 0 km/h
819 19-05-2010 19:47:02 11.6 C 8.11 g/m*3 11.6 C 0 km/h
820 19-05-2010 19:59:02 11.6 C 8 g/m*3 11.6 C 0 km/h
821 19-05-2010 20:11:02 11.6 C 8 g/m*3 11.6 C 0 km/h
822 19-05-2010 20:23:02 11.7 C 7.95 g/m*3 11.7 C 0 km/h
823 19-05-2010 20:35:01 11.7 C 7.84 g/m*3 11.7 C 0 km/h
824 19-05-2010 20:47:02 11.8 C 7.68 g/m*3 11.8 C 0 km/h
825 19-05-2010 20:59:02 12 C 7.14 g/m*3 12 C 0 km/h
Sensor: Nr:Datum:Temp:Abs-Feuchte:Windchill:Wind:
Aussen-T/F 826 19-05-2010 21:11:01 12.6 C 6.2 g/m*3 12.6 C 0 km/h
827 19-05-2010 21:23:02 12.8 C 6.16 g/m*3 12.8 C 0 km/h
828 19-05-2010 21:35:02 13.2 C 5.51 g/m*3 13.2 C 0 km/h
829 19-05-2010 21:47:02 13 C 5.78 g/m*3 13 C 0 km/h
830 19-05-2010 21:59:03 13.1 C 5.48 g/m*3 13.1 C 0 km/h
831 19-05-2010 22:11:02 13.2 C 5.51 g/m*3 13.2 C 0 km/h
832 19-05-2010 22:23:02 13.1 C 5.71 g/m*3 13.1 C 0 km/h
833 19-05-2010 22:35:03 13.2 C 5.63 g/m*3 13.2 C 0 km/h
834 19-05-2010 22:47:02 13 C 5.67 g/m*3 13 C 0 km/h
835 19-05-2010 22:59:03 12.8 C 5.94 g/m*3 12.8 C 0 km/h
836 19-05-2010 23:11:01 12.8 C 5.94 g/m*3 12.8 C 0 km/h
837 19-05-2010 23:23:02 12.8 C 5.82 g/m*3 12.8 C 0 km/h
838 19-05-2010 23:35:02 12.8 C 5.94 g/m*3 12.8 C 0 km/h
839 19-05-2010 23:47:02 12.9 C 5.75 g/m*3 12.9 C 0 km/h
840 19-05-2010 23:59:02 12.7 C 5.68 g/m*3 12.7 C 0 km/h

Legende:
   Min
   Max


Maximal/Minimal-Werte vom 13.05.2010 - 19.05.2010

Sensor Min Max Avg
Temp
(Aussen-T/F)
5.7 °C
18-05-2010  03:22:04
21.7 °C
16-05-2010  17:08:02
10.48 °C
Abs-Feuchte
(Aussen-T/F)
2.47 g/m*3
15-05-2010  16:31:01
10.05 g/m*3
17-05-2010  16:09:01
6.09 g/m*3
Windchill
(Aussen-T/F)
5.7 C
18-05-2010  03:22:04
21.7 C
16-05-2010  17:08:02
10.47 C

Die Daten stammen von einer Davis Vantage Pro 2 Wetter-Station und werden unter Linux mit der Software wview2wettercgi und aufbereitet. Alle Angaben erfolgen ohne Gewähr für ihre Vollständigkeit oder Richtigkeit.
Kontakt: Rainer Krienke krienke@uni-koblenz.de . Meine Webseiten an der Uni Koblenz oder privat.
Version: $Revision: 0.78 $